Showing default

AEROCUBE 18A, 63220

Orbit data source: Space-Track

AEROCUBE 18A, 63220 is a payload satellite owned by AERO (US) in SSO that was launched on Sat, 15 Mar 2025 UTC via an FALCON 9 launch vehicle from the Air Force Western Test Range (AFWTR). Payload-class satellites include a variety of spacecraft equipped with specific instruments for various scientific and technological missions. These include communications satellites like Starlink; space stations such as the ISS; scientific satellites like the Hubble; Earth observation satellites from companies like Planet Labs, Umbra, and HawkEye 360; GPS; miniature CubeSats for education and research; and military/defense satellites.

Loading next visibility...
Identifier
63220, 2025-052L
Orbit
SSO
Country
Flag of USUS
Related business
Manufacturer
AERO
Mission
Operational Defense Technology
Bus & Motor
CUBESAT 6U, Unknown motor
Mass
10 kg wet, 10 kg dry
Launch date (UTC)
2025-03-15 (1 year ago)
Launch vehicle
FALCON 9
Launch site
Air Force Western Test Range (AFWTR)
Object type
Payload
Rocket body
Debris
Shape & HBR
Box + 2 Pan, 14.5 m
Radar Cross Section
0.045 m², Medium (>0.1 m² and < 1m²)

Expand to show TLE details & history
Last TLE update: 1 day ago

TLE from 1 day ago
0 AEROCUBE 18A
1 63220U 25052L   26206.22538068  .00006147  00000-0  25027-3 0  9994
2 63220  97.3923  99.2146 0004183  18.4367 341.7022 15.24852508 75690
Epoch: 2026-07-25T05:24Z
TLE epoch observation values (Epoch: 2026-07-25T05:24:32.890Z)
Latitude
-0.00001°
Longitude
75.13684°
Altitude
491.597 km
Speed
7.621 km/s
True Right ascension
06h 36m 51s
True Declination
0° 00' 00"
Sunlit
Object was in daylight at epoch
Visualization orbit readout
Latitude
Unknown
Longitude
Unknown
Altitude
Unknown
Speed
Unknown
Apparent Right ascension
Unknown
Apparent Declination
Unknown
Sunlit
N/A
Visualization observer readout
Local Sidereal Time
23:03:59
Azimuth
Unknown
Elevation
Unknown
Doppler factor
Unknown
Orbital elements
Apogee altitude
491.059 km
Perigee altitude
485.315 km
Semi-major axis
6,866.324 km
Eccentricity
0.00042
Inclination
97.3923°
RAAN
99.2146°
Arg. of periapsis
18.4367°
True anomaly
341.68714°
Mean anomaly
341.7022°
Eccentric anomaly
341.69467°
Mean motion
3.81467 °/min
Orbital period
94.37 mins
BSTAR
0.00025027
Loading maneuver chart data...
Computing Atmospheric mass density...
Loading historical data...
Loading historical data...
Loading historical data...
Loading historical data...
Loading historical data...
Loading historical data...
Loading historical data...

Documentation

Showing up to 5 results
|